Location: Ariel
(45.9570°N, 122.5700°W)
Time: 17:08:12
(UTC-07:00)

Tiros 1 - Pass Details

Date: 25 July 2019
Orbit: 631 x 664 km, 48.4° (Epoch: 24 August)

Event Time Altitude Azimuth Distance (km) Brightness Sun altitude
Rises 18:52:06 0° 280° (W) 2,995 12.3 18.1°
Reaches altitude 10° 18:55:58 10° 249° (WSW) 2,073 10.9 17.5°
Maximum altitude 18:57:41 12° 228° (SW) 1,945 10.3 17.2°
Drops below altitude 10° 18:59:25 10° 207° (SSW) 2,063 10.0 16.9°
Sets 19:03:14 0° 176° (S) 2,961 10.4 16.2°
